Hors Challenge

Le Jogging De La Fête - Beaufays (6.60 km)

dimanche 19 septembre 2021

Vous pouvez trouver Le classement original sur : www.otopservices.be  
 
LE JOGGING DE LA FÊTE - BEAUFAYS
DISTANCE : 6.57 km
dimanche 19 septembre 2021
 
Place dos NOM Catégorie Pl/cat temps temps/km Vitesse
01:00:00              
1 925 VALENTIN GREGOIRE SENIOR H 1 00:24:29 03:44 16.10
2 956 LOIC DELVAUX ESPOIR H 1 00:25:04 03:49 15.73
3 927 MANON SCHAUWERS SENIOR D 1 00:27:52 04:15 14.15
4 909 MARIE MAZZOLI ESPOIR D 1 00:28:03 04:16 14.05
5 917 AUGUSTIN LEMAIRE ESPOIR H 2 00:28:17 04:18 13.94
6 862 LOÏC HOUBIE ESPOIR H 3 00:28:29 04:20 13.84
7 845 VALERY LAMBENNE VETERAN 1 1 00:28:38 04:22 13.77
8 2762 PIERRE DUCHATELET VETERAN 1 2 00:28:45 04:23 13.71
9 910 ALEXANDRE SCHYNS SENIOR H 2 00:29:11 04:27 13.51
10 2772 CLEMENT COLLIGNON ESPOIR H 4 00:29:12 04:27 13.50
11 2773 JEAN FLOHIMONT SENIOR H 3 00:29:24 04:29 13.41
12 998 PIERRE BIHET SENIOR H 4 00:29:35 04:30 13.32
13 992 GABRIEL ALAMRI ESPOIR H 5 00:29:38 04:31 13.30
14 904 SACHA MANTELEERS ESPOIR H 6 00:29:59 04:34 13.15
15 2785 BAPTISTE FELLIN ESPOIR H 7 00:30:27 04:38 12.95
16 958 WILLIAM RAPSAET ESPOIR H 8 00:30:41 04:40 12.85
17 889 AMÉLIE PIERLOT ESPOIR D 2 00:30:53 04:42 12.76
18 2796 NIELS CORMAN ESPOIR H 9 00:30:55 04:42 12.75
19 971 MICHEL KELLENS VÉTÉRAN 2 1 00:31:10 04:45 12.65
20 966 ELOISE SENARD ESPOIR D 3 00:31:27 04:47 12.53
21 2781 CAMILLE MATHIEU SENIOR D 2 00:31:31 04:48 12.51
22 983 CEDRIC LIBOIS VETERAN 1 3 00:32:30 04:57 12.13
23 978 FREDERIC LEJEUNE VETERAN 1 4 00:32:46 04:59 12.03
24 953 ALEXIS GILLES ESPOIR H 10 00:32:59 05:01 11.95
25 972 PHILIPPE CRENIER VÉTÉRAN 2 2 00:33:01 05:02 11.94
26 865 DAVID DELVAUX SENIOR H 5 00:33:06 05:02 11.91
27 866 OSCAR DELVAUX ESPOIR H 11 00:33:06 05:02 11.91
28 886 FLORIAN BOHET SENIOR H 6 00:33:13 05:03 11.87
29 881 FRANCOIS RIGO SENIOR H 7 00:33:14 05:04 11.86
30 976 GASTON DE LAMALLE ESPOIR H 12 00:33:29 05:06 11.77
31 858 YAEL DEWEZ ESPOIR H 13 00:33:36 05:07 11.73
32 2760 JAMES CRISNER SENIOR H 8 00:33:36 05:07 11.73
33 908 JULES BEMELMANS ESPOIR H 14 00:33:51 05:09 11.64
34 952 LOUIS DELREZ ESPOIR H 15 00:33:56 05:10 11.62
35 955 MAXIME PIEDBEUF ESPOIR H 16 00:33:59 05:10 11.60
36 2765 MAXENCE KEPENNE ESPOIR H 17 00:34:02 05:11 11.58
37 936 STEPHANE SUIJKERBUIJK SENIOR H 9 00:34:12 05:12 11.53
38 977 PIERRE LEBAS SENIOR H 10 00:34:26 05:14 11.45
39 2804 FLORIAN THELEN ESPOIR H 18 00:34:36 05:16 11.39
40 897 NATHAN HEUSKIN ESPOIR H 19 00:34:36 05:16 11.39
41 868 LUDOVIC DASSY SENIOR H 11 00:34:43 05:17 11.35
42 2786 HENRI FELLIN VETERAN 1 5 00:34:44 05:17 11.35
43 2784 BENOIT FELLIN VETERAN 1 6 00:34:44 05:17 11.35
44 2771 THEO COLLIGNON ESPOIR H 20 00:35:11 05:21 11.20
45 912 AUGUSTE PETERS ESPOIR H 21 00:35:18 05:22 11.17
46 2763 GENEVIEVE GILLES AINÉE 1 1 00:35:31 05:24 11.10
47 987 JEAN-FRED LECLERE VETERAN 1 7 00:35:37 05:25 11.07
48 965 DOMINIQUE VERLAINE VETERAN 1 8 00:35:53 05:28 10.99
49 932 LOIC DE JONGHE SENIOR H 12 00:35:59 05:29 10.95
50 935 FREDERIC GUILLEMEAU SENIOR H 13 00:36:07 05:30 10.91
51 957 SIMON FRANCK SENIOR H 14 00:36:12 05:31 10.89
52 959 ELISA FRANCK ESPOIR D 4 00:36:12 05:31 10.89
53 2768 YANIS PORTUGAELS ESPOIR H 22 00:36:13 05:31 10.88
54 2769 MATHIS PORTUGAELS ESPOIR H 23 00:36:15 05:31 10.87
55 855 CELINE MORSA SENIOR D 3 00:36:35 05:34 10.77
56 2787 CEDRIC BROGNEAUX VETERAN 1 9 00:36:37 05:34 10.77
57 2788 LOUIS BROGNEAUX ESPOIR H 24 00:36:37 05:34 10.77
58 945 ALEXANDRE AREND ESPOIR H 25 00:36:50 05:36 10.70
59 946 LOUIS DUFAYS ESPOIR H 26 00:36:51 05:37 10.70
60 2770 GREGOIRE MARICHAL ESPOIR H 27 00:36:52 05:37 10.69
61 950 OLIVIA DEBATTY ESPOIR D 5 00:36:59 05:38 10.66
62 937 NATHALIE VAN DUYSE SENIOR D 4 00:37:04 05:39 10.63
63 931 JULIEN DE JONGHE VÉTÉRAN 2 3 00:37:13 05:40 10.59
64 902 ROMAIN BLUM ESPOIR H 28 00:37:19 05:41 10.56
65 944 MARTIN DELREZ ESPOIR H 29 00:37:20 05:41 10.56
66 915 HARRY DEGHAYE ESPOIR H 30 00:37:24 05:42 10.54
67 920 MANON DEPREZ SENIOR D 5 00:37:26 05:42 10.53
68 924 LÉA SCHAUS ESPOIR D 6 00:37:32 05:43 10.50
69 905 EMMA RICHARDY ESPOIR D 7 00:37:32 05:43 10.50
70 954 MATTEO MOMI ESPOIR H 31 00:37:35 05:43 10.49
71 942 VICTOR DUCHESNE ESPOIR H 32 00:37:45 05:45 10.44
72 898 OLIVIER HEUSKIN VETERAN 1 10 00:37:46 05:45 10.44
73 923 ARTHUR LECLERCQ ESPOIR H 33 00:37:56 05:46 10.39
74 842 DAVID BONJEAN VÉTÉRAN 2 4 00:37:58 05:47 10.38
75 2780 RAPHAEL ROTH ESPOIR H 34 00:38:04 05:48 10.36
76 963 MARC SENARD VÉTÉRAN 2 5 00:38:05 05:48 10.35
77 2761 LOIC BENSBERG SENIOR H 15 00:38:06 05:48 10.35
78 901 THIERRY BLUM VETERAN 1 11 00:38:12 05:49 10.32
79 906 LENA RICHARDY ESPOIR D 8 00:38:20 05:50 10.28
80 986 CAROLINE VISEUR AINÉE 1 2 00:38:21 05:50 10.28
81 2789 HUGO MASSOZ ESPOIR H 35 00:38:27 05:51 10.25
82 859 SAMUEL DEWEZ SENIOR H 16 00:38:30 05:52 10.24
83 2799 MARINE TERF ESPOIR D 9 00:38:37 05:53 10.21
84 885 MARTIN LECLERCQ ESPOIR H 36 00:38:45 05:54 10.17
85 2790 YOAN HENRY VETERAN 1 12 00:38:53 05:55 10.14
86 2779 PIERRE DUBOURG VETERAN 1 13 00:38:58 05:56 10.12
87 911 XAVIER PETERS VETERAN 1 14 00:39:03 05:57 10.09
88 994 CORENTIN RADERMECKER ESPOIR H 37 00:39:11 05:58 10.06
89 964 NATHALIE ARNOULD AINÉE 2 1 00:39:21 05:59 10.02
90 880 VIRGINIE GUILLAUME SENIOR D 6 00:39:21 05:59 10.02
91 914 MARYLINE KLAURENS AINÉE 1 3 00:39:31 06:01 9.98
92 2782 ESTELLE RENSON SENIOR D 7 00:39:46 06:03 9.91
93 922 MARGAUX JODOGNE SENIOR D 8 00:40:00 06:05 9.85
94 2774 XAVIER DELLAERT SENIOR H 17 00:40:05 06:06 9.83
95 892 BENOIT KENENS VETERAN 1 15 00:40:08 06:07 9.82
96 891 ANATOLE KENENS ESPOIR H 38 00:40:08 06:07 9.82
97 913 TOM KLAURENS ESPOIR H 39 00:40:19 06:08 9.78
98 860 JULES DUBOIS VETERAN 3 1 00:40:20 06:08 9.77
99 943 ANNE-AYMONE MARAITE AINÉE 1 4 00:40:23 06:09 9.76
100 941 ELEANORE DUCHESNE ESPOIR D 10 00:40:23 06:09 9.76
101 921 LAURENCE LAVIGNE SENIOR D 9 00:40:40 06:11 9.69
102 851 ALEXANDRE HEMROULLE ESPOIR H 40 00:40:43 06:12 9.68
103 2807 GAUTHIER CHABANE ESPOIR H 41 00:40:58 06:14 9.62
104 2806 FREDERIC CHABANE VETERAN 1 16 00:40:58 06:14 9.62
105 993 EDOUARD BIOUL ESPOIR H 42 00:41:03 06:15 9.60
106 3931 SEBASTIEN SCHMIT ESPOIR H 43 00:41:03 06:15 9.60
107 947 AYMERIC LESUEUR ESPOIR H 44 00:41:08 06:16 9.58
108 879 REGIS PIRARD VETERAN 1 17 00:41:46 06:21 9.44
109 2794 OLIVIER POLET VETERAN 1 18 00:41:51 06:22 9.42
110 857 LAURENT DEWEZ VETERAN 1 19 00:41:59 06:23 9.39
111 844 CHRISTELLE FINCK AINÉE 1 5 00:42:00 06:24 9.39
112 934 NICOLAS ANTOINE SENIOR H 18 00:42:04 06:24 9.37
113 2802 FRANCOISE BRIXHE AINÉE 1 6 00:42:14 06:26 9.33
114 867 SEVERINE HALLET SENIOR D 10 00:42:19 06:26 9.32
115 2803 ERIC HAVELANGE VÉTÉRAN 2 6 00:42:19 06:26 9.32
116 2777 RAPHAEL EL-KHARMOUTE VÉTÉRAN 2 7 00:42:25 06:27 9.29
117 896 YVES ROWART VETERAN 1 20 00:42:28 06:28 9.28
118 876 NOAH NIZET ESPOIR H 45 00:42:41 06:30 9.24
119 875 GEOFFREY NIZET VETERAN 1 21 00:42:41 06:30 9.24
120 2754 FREDERIC CORMAN VETERAN 1 22 00:42:42 06:30 9.23
121 2766 THIAGO SCHMEDT ESPOIR H 46 00:43:00 06:33 9.17
122 969 PIERRE NISIN VETERAN 1 23 00:43:03 06:33 9.16
123 890 SOPHIE LABALUE SENIOR D 11 00:43:13 06:35 9.12
124 948 SEVERINE MARON SENIOR D 12 00:43:15 06:35 9.11
125 2793 JEAN-NOEL FUNTOWICZ XXX   00:43:17 06:35 9.11
126 1000 PASCAL DEKROCK VETERAN 1 24 00:43:40 06:39 9.03
127 2801 LAURENT LECOMTE SENIOR H 19 00:43:58 06:42 8.97
128 2800 GREGORY BECK SENIOR H 20 00:43:58 06:42 8.97
129 2798 LUCIE GRANDJEAN ESPOIR D 11 00:44:07 06:43 8.93
130 2814 AMELIE PLOMTEUX XXX   00:44:07 06:43 8.93
131 2813 LOUISE TERF ESPOIR D 12 00:44:20 06:45 8.89
132 2775 FLORENCE GILLARD SENIOR D 13 00:44:23 06:45 8.88
133 985 LUCAS JANS SENIOR H 21 00:44:30 06:46 8.86
134 2811 DAVID WAULOT XXX   00:45:15 06:53 8.71
135 968 HELENE ROSOUX SENIOR D 14 00:45:16 06:53 8.71
136 2810 CAROLINE REUBANOL SENIOR D 15 00:45:17 06:54 8.70
137 919 ACHILLE LORIAUX ESPOIR H 47 00:45:22 06:54 8.69
138 975 VIRGINIE DE HALLEUX AINÉE 2 2 00:45:26 06:55 8.68
139 918 PIERRE LORIAUX VETERAN 1 25 00:45:27 06:55 8.67
140 2764 CATHERINE BLOCKX AINÉE 1 7 00:45:42 06:57 8.63
141 2776 JULIAN SIMON ESPOIR H 48 00:45:44 06:58 8.62
142 967 JULIE DOYEN SENIOR D 16 00:45:59 07:00 8.57
143 849 OLIVIA SANTUS SENIOR D 17 00:45:59 07:00 8.57
144 990 CHRISTOPHE DELERSY VETERAN 1 26 00:46:08 07:01 8.54
145 974 LUC DE LAMALLE XXX   00:46:09 07:01 8.54
146 991 CHRISTIANE BOLOGNA AINÉE 2 3 00:46:15 07:02 8.52
147 984 SEVERINE HALLUT AINÉE 1 8 00:46:17 07:03 8.52
148 973 ALEXANDRE GEORGE SENIOR H 22 00:46:22 07:03 8.50
149 999 CHRISTINE SONTAG AINÉE 1 9 00:46:45 07:07 8.43
150 2778 MARGOT WILLEMS ESPOIR D 13 00:46:53 07:08 8.41
151 951 MAELLE DEBATTY ESPOIR D 14 00:46:53 07:08 8.41
152 938 JULIEN JANS SENIOR H 23 00:47:03 07:10 8.38
153 2755 LAURENT VANHEES SENIOR H 24 00:47:14 07:11 8.35
154 2809 JOHANNE HERON AINÉE 2 4 00:47:18 07:12 8.33
155 848 PAULINE WEMBALOLA SENIOR D 18 00:47:21 07:12 8.32
156 847 ELISABETH WEMBALOLA SENIOR D 19 00:47:21 07:12 8.32
157 899 SABRINA SANTAROSSA AINÉE 1 10 00:47:31 07:14 8.30
158 962 LUCAS SCHAUS ESPOIR H 49 00:47:43 07:16 8.26
159 961 LAURENCE PAULISSEN SENIOR D 20 00:47:53 07:17 8.23
160 861 SARAH MICELI SENIOR D 21 00:47:56 07:18 8.22
161 850 PERRINE BERWART SENIOR D 22 00:48:05 07:19 8.20
162 933 ISABELLE MOREAU AINÉE 2 5 00:48:09 07:20 8.19
163 873 CAMILLE GODFRAIND SENIOR D 23 00:48:11 07:20 8.18
164 988 VIRGINIE PINCEMAIL SENIOR D 24 00:48:17 07:21 8.16
165 989 JOEL PINCEMAIL VETERAN 3 2 00:48:17 07:21 8.16
166 970 THIBAUT .LAMBENNE ESPOIR H 50 00:48:19 07:21 8.16
167 949 AURELIE CLEMEUR SENIOR D 25 00:48:31 07:23 8.12
168 854 CHANDRA MOUREAU SENIOR D 26 00:48:32 07:23 8.12
169 907 SABINE GIELEN AINÉE 1 11 00:48:37 07:24 8.11
170 997 FRANCOISE MARQUET AINÉE 1 12 00:48:45 07:25 8.09
171 996 REGIS RADERMECKER VETERAN 1 27 00:48:46 07:25 8.08
172 2783 ANNE LAURENT SENIOR D 27 00:48:48 07:26 8.08
173 874 VLADIA KRINS SENIOR D 28 00:48:50 07:26 8.07
174 981 HENRI HEMROULLE ESPOIR H 51 00:48:58 07:27 8.05
175 980 ARSENE HEMROULLE ESPOIR H 52 00:49:06 07:28 8.03
176 982 CAROLINE TRICOT AINÉE 1 13 00:49:07 07:29 8.03
177 2808 AMELIE COKAIKO SENIOR D 29 00:49:48 07:35 7.92
178 894 ERIC HAVELANGE VÉTÉRAN 2 8 00:49:48 07:35 7.92
179 883 BERNARD GOOSSENS VÉTÉRAN 2 9 00:49:48 07:35 7.92
180 877 MARC DORMAL SENIOR H 25 00:49:54 07:36 7.90
181 888 FLORENCE ROGER AINÉE 1 14 00:50:04 07:37 7.87
182 887 GUY MUERMANS VÉTÉRAN 2 10 00:50:04 07:37 7.87
183 863 AURELIE BODART SENIOR D 30 00:50:14 07:39 7.85
184 878 LAETITIA DESAIVE SENIOR D 31 00:50:23 07:40 7.82
185 2767 JULIETTE BRIERS ESPOIR D 15 00:50:26 07:41 7.82
186 2757 NATHALIE ANTOINE AINÉE 1 15 00:50:35 07:42 7.79
187 960 CHRYSTEL SLONGO AINÉE 1 16 00:50:35 07:42 7.79
188 2758 STEPHANIE ABSIL SENIOR D 32 00:50:35 07:42 7.79
189 2752 DINO SAARBACH SENIOR H 26 00:51:06 07:47 7.71
190 979 RENAUD DWELSHAUVERS VETERAN 1 28 00:51:26 07:50 7.66
191 869 CELINE HERRY AINÉE 1 17 00:51:28 07:50 7.66
192 2756 NICOLAS DAEMS SENIOR H 27 00:51:35 07:51 7.64
193 2797 INES CORMAN ESPOIR D 16 00:51:39 07:52 7.63
194 916 ELODIE DELIEGE SENIOR D 33 00:51:41 07:52 7.63
195 870 CAROLINE DUMONT AINÉE 1 18 00:51:45 07:53 7.62
196 939 GAUTHIER L'HERMITTE ESPOIR H 53 00:53:04 08:05 7.43
197 940 LAURE L'HERMITTE AINÉE 1 19 00:53:04 08:05 7.43
198 2791 AURELIE BOSSON SENIOR D 34 00:55:56 08:31 7.05
199 2792 LAURA COLINE SENIOR D 35 00:55:56 08:31 7.05
200 2751 LAURIE BERGER SENIOR H 28 00:57:53 08:49 6.81
201 2759 CATHERINE SCHMIDT AINÉE 1 20 00:57:53 08:49 6.81
202 2795 MAUD PELERIN AINÉE 1 21 01:25:13 12:58 4.63
               
Nos dernières videos